When you browse on this site, cookies collect data to enhance your experience and personalize the content and advertising you see.
Visit our Privacy Policy to learn more. By continuing to use the site, you agree to this use of cookies and data.
  • In Hungary
  • List of Countries
  • For 7 days
  • Water Temperature
  • Weather Map
  • News
  • Weather Widgets
  • user-avatar
    Login

    Hourly Weather Borucino

    Today, 8 December, Sunday

    Time Temperature Precipitation Wind Pressure Humidity
    00:00 +3°C° 0.1 mm 5 mps 738 mmHg 90%
    01:00 +4°C° 0 mm 4 mps 738 mmHg 89%
    02:00 +3°C° 0.2 mm 5 mps 738 mmHg 89%
    03:00 +5°C° 0.2 mm 5 mps 738 mmHg 89%
    04:00 +5°C° 0.2 mm 5 mps 737 mmHg 89%
    05:00 +3°C° 0 mm 6 mps 737 mmHg 89%
    06:00 +3°C° 0 mm 6 mps 737 mmHg 88%
    07:00 +3°C° 0 mm 6 mps 737 mmHg 87%
    08:00 +3°C° 0 mm 7 mps 736 mmHg 86%
    09:00 +2°C° 0 mm 8 mps 735 mmHg 84%
    10:00 +4°C° 0 mm 8 mps 734 mmHg 82%
    11:00 +4°C° 0 mm 8 mps 733 mmHg 81%
    12:00 +3°C° 0 mm 9 mps 733 mmHg 79%
    13:00 +5°C° 0 mm 9 mps 732 mmHg 78%
    14:00 +5°C° 0.3 mm 9 mps 731 mmHg 80%
    15:00 +5°C° 0.3 mm 9 mps 731 mmHg 83%
    16:00 +6°C° 0.3 mm 9 mps 730 mmHg 85%
    17:00 +6°C° 0.1 mm 8 mps 730 mmHg 85%
    18:00 +6°C° 0.1 mm 8 mps 730 mmHg 84%
    19:00 +8°C° 0.1 mm 7 mps 730 mmHg 84%
    20:00 +6°C° 0.1 mm 7 mps 730 mmHg 83%
    21:00 +5°C° 0.1 mm 6 mps 730 mmHg 83%
    22:00 +5°C° 0.1 mm 6 mps 730 mmHg 82%
    23:00 +4°C° 0 mm 6 mps 730 mmHg 82%

    Tomorrow, 9 December, Monday

    Time Temperature Precipitation Wind Pressure Humidity
    00:00 +4°C° 0 mm 6 mps 730 mmHg 83%
    01:00 +3°C° 0 mm 6 mps 730 mmHg 83%
    02:00 +3°C° 0 mm 6 mps 730 mmHg 83%
    03:00 +3°C° 0 mm 6 mps 730 mmHg 83%
    04:00 +2°C° 0 mm 6 mps 730 mmHg 83%
    05:00 +2°C° 0.1 mm 5 mps 730 mmHg 84%
    06:00 +2°C° 0.1 mm 5 mps 730 mmHg 85%
    07:00 +2°C° 0.1 mm 5 mps 730 mmHg 87%
    08:00 +2°C° 0 mm 5 mps 731 mmHg 85%
    09:00 +2°C° 0 mm 6 mps 731 mmHg 83%
    10:00 +3°C° 0 mm 6 mps 731 mmHg 81%
    11:00 +3°C° 0 mm 6 mps 730 mmHg 79%
    12:00 +3°C° 0 mm 7 mps 730 mmHg 76%
    13:00 +4°C° 0 mm 7 mps 730 mmHg 74%
    14:00 +4°C° 0 mm 6 mps 730 mmHg 76%
    15:00 +3°C° 0 mm 6 mps 730 mmHg 78%
    16:00 +3°C° 0 mm 5 mps 730 mmHg 80%
    17:00 +3°C° 0.1 mm 5 mps 730 mmHg 81%
    18:00 +3°C° 0.1 mm 6 mps 730 mmHg 82%
    19:00 +3°C° 0.1 mm 6 mps 731 mmHg 83%
    20:00 +3°C° 0.1 mm 5 mps 731 mmHg 84%
    21:00 +2°C° 0.1 mm 5 mps 732 mmHg 85%
    22:00 +2°C° 0.1 mm 5 mps 732 mmHg 86%
    23:00 +2°C° 0.1 mm 5 mps 733 mmHg 86%

    Day after tomorrow, 10 December, Tuesday

    Time Temperature Precipitation Wind Pressure Humidity
    00:00 +2°C° 0.1 mm 5 mps 733 mmHg 86%
    01:00 +2°C° 0.1 mm 5 mps 734 mmHg 86%
    02:00 +2°C° 0 mm 5 mps 735 mmHg 84%
    03:00 +1°C° 0 mm 4 mps 735 mmHg 83%
    04:00 +1°C° 0 mm 4 mps 736 mmHg 81%
    05:00 +2°C° 0 mm 3 mps 737 mmHg 84%
    06:00 +2°C° 0 mm 3 mps 738 mmHg 87%
    07:00 +2°C° 0 mm 3 mps 738 mmHg 90%
    08:00 +3°C° 0 mm 4 mps 740 mmHg 90%
    09:00 +3°C° 0 mm 4 mps 741 mmHg 89%
    10:00 +2°C° 0 mm 5 mps 742 mmHg 89%
    11:00 +2°C° 0 mm 5 mps 743 mmHg 87%
    12:00 +1°C° 0 mm 5 mps 744 mmHg 85%
    13:00 +1°C° 0 mm 5 mps 745 mmHg 84%
    14:00 0°C° 0 mm 5 mps 746 mmHg 81%
    15:00 0°C° 0 mm 4 mps 746 mmHg 79%
    16:00 0°C° 0 mm 3 mps 747 mmHg 77%
    17:00 +1°C° 0 mm 2 mps 748 mmHg 77%
    18:00 -1°C° 0 mm 2 mps 748 mmHg 76%
    19:00 +1°C° 0 mm 1 mps 749 mmHg 76%
    20:00 0°C° 0 mm 1 mps 749 mmHg 75%
    21:00 -2°C° 0 mm 2 mps 749 mmHg 75%
    22:00 -2°C° 0 mm 2 mps 749 mmHg 75%
    23:00 -2°C° 0 mm 2 mps 748 mmHg 74%

    11 December, Wednesday

    Time Temperature Precipitation Wind Pressure Humidity
    00:00 -2°C° 0 mm 3 mps 748 mmHg 73%
    01:00 -2°C° 0 mm 3 mps 748 mmHg 72%
    02:00 -3°C° 0 mm 4 mps 747 mmHg 69%
    03:00 -4°C° 0 mm 5 mps 746 mmHg 67%
    04:00 -4°C° 0 mm 5 mps 746 mmHg 65%
    05:00 -3°C° 0 mm 6 mps 745 mmHg 68%
    06:00 -3°C° 0 mm 6 mps 745 mmHg 70%
    07:00 -3°C° 0 mm 6 mps 745 mmHg 73%
    08:00 -3°C° 0 mm 6 mps 744 mmHg 72%
    09:00 -2°C° 0 mm 7 mps 744 mmHg 70%
    10:00 -2°C° 0 mm 7 mps 744 mmHg 69%
    11:00 -2°C° 0 mm 6 mps 743 mmHg 66%
    12:00 -2°C° 0 mm 6 mps 743 mmHg 63%
    13:00 -1°C° 0 mm 6 mps 742 mmHg 61%
    14:00 -2°C° 0 mm 6 mps 741 mmHg 61%
    15:00 -1°C° 0 mm 5 mps 741 mmHg 62%
    16:00 -1°C° 0 mm 5 mps 740 mmHg 63%
    17:00 -2°C° 0 mm 6 mps 740 mmHg 64%
    18:00 -2°C° 0 mm 6 mps 739 mmHg 64%
    19:00 -2°C° 0 mm 6 mps 739 mmHg 65%
    20:00 -2°C° 0 mm 6 mps 738 mmHg 66%
    21:00 -2°C° 0 mm 6 mps 738 mmHg 67%
    22:00 -2°C° 0 mm 6 mps 737 mmHg 68%
    23:00 -2°C° 0.1 mm 6 mps 737 mmHg 75%

    12 December, Thursday

    Time Temperature Precipitation Wind Pressure Humidity
    00:00 -2°C° 0.1 mm 6 mps 736 mmHg 82%
    01:00 -3°C° 0.1 mm 6 mps 736 mmHg 88%
    02:00 -1°C° 0.1 mm 5 mps 736 mmHg 90%
    03:00 0°C° 0.1 mm 5 mps 736 mmHg 92%
    04:00 0°C° 0.1 mm 5 mps 735 mmHg 94%
    05:00 0°C° 0 mm 5 mps 735 mmHg 94%
    06:00 0°C° 0 mm 5 mps 736 mmHg 93%
    07:00 0°C° 0 mm 4 mps 736 mmHg 92%
    08:00 0°C° 0 mm 5 mps 736 mmHg 92%
    09:00 0°C° 0 mm 5 mps 736 mmHg 91%
    10:00 -1°C° 0 mm 6 mps 736 mmHg 90%
    11:00 -1°C° 0.1 mm 6 mps 736 mmHg 90%
    12:00 -1°C° 0.1 mm 6 mps 736 mmHg 91%
    13:00 -1°C° 0.1 mm 6 mps 736 mmHg 91%
    14:00 -1°C° 0 mm 6 mps 736 mmHg 89%
    15:00 -1°C° 0 mm 6 mps 736 mmHg 87%
    16:00 -1°C° 0 mm 6 mps 737 mmHg 84%
    17:00 0°C° 0 mm 5 mps 737 mmHg 84%
    18:00 -1°C° 0 mm 5 mps 737 mmHg 84%
    19:00 -1°C° 0 mm 4 mps 737 mmHg 84%
    20:00 -1°C° 0 mm 5 mps 736 mmHg 84%
    21:00 -2°C° 0 mm 5 mps 736 mmHg 84%
    22:00 -2°C° 0 mm 5 mps 736 mmHg 84%
    23:00 -3°C° 0 mm 6 mps 734 mmHg 83%

    13 December, Friday

    Time Temperature Precipitation Wind Pressure Humidity
    00:00 -3°C° 0 mm 7 mps 733 mmHg 82%
    01:00 -3°C° 0 mm 7 mps 732 mmHg 82%
    02:00 -4°C° 0 mm 8 mps 731 mmHg 78%
    03:00 -4°C° 0 mm 8 mps 729 mmHg 75%
    04:00 -4°C° 0 mm 9 mps 728 mmHg 72%
    05:00 -3°C° 0 mm 9 mps 726 mmHg 70%
    06:00 -3°C° 0 mm 10 mps 725 mmHg 68%
    07:00 -3°C° 0 mm 10 mps 724 mmHg 66%
    08:00 -2°C° 0.7 mm 10 mps 723 mmHg 73%
    09:00 -2°C° 0.7 mm 11 mps 722 mmHg 81%
    10:00 -2°C° 0.7 mm 11 mps 722 mmHg 88%
    11:00 -2°C° 0.9 mm 10 mps 721 mmHg 90%
    12:00 -1°C° 0.9 mm 9 mps 720 mmHg 93%
    13:00 -1°C° 0.9 mm 8 mps 720 mmHg 95%
    14:00 -1°C° 0.4 mm 7 mps 720 mmHg 93%
    15:00 +1°C° 0.4 mm 6 mps 720 mmHg 92%
    16:00 +1°C° 0.4 mm 5 mps 720 mmHg 90%
    17:00 +1°C° 0 mm 5 mps 721 mmHg 86%
    18:00 +1°C° 0 mm 6 mps 721 mmHg 82%
    19:00 -1°C° 0 mm 6 mps 721 mmHg 78%
    20:00 -1°C° 0.2 mm 7 mps 722 mmHg 80%
    21:00 -1°C° 0.2 mm 8 mps 722 mmHg 83%
    22:00 -1°C° 0.2 mm 9 mps 722 mmHg 86%
    23:00 -1°C° 0.3 mm 8 mps 722 mmHg 87%
    Show more